Location: Brantley
(31.5822°N, 86.2569°W)
Time: 01:14:18
(UTC+00:00)

Transit 2A Rocket - Pass Details

Date: 25 February 2026
Orbit: 583 x 900 km, 66.7° (Epoch: 12 March)

Event Time Altitude Azimuth Distance (km) Brightness Sun altitude
Rises 03:53:25 0° 355° (N) 3,295 - -53.4°
Reaches altitude 10° 03:57:32 10° 24° (NNE) 2,278 - -54.1°
Maximum altitude 03:59:36 12° 48° (NE) 2,078 - -54.5°
Drops below altitude 10° 04:01:37 10° 72° (ENE) 2,188 - -54.8°
Sets 04:05:22 0° 103° (ESE) 3,020 - -55.5°
